Regional Weather Roundup
Issued by NWS Green Bay, WI

Home | Current Version | Previous Version | Text Only | Print | Product List | Glossary On
Versions: 1 2 3 4 5 6 7 8 9 10 11 12 13 14 15 16 17 18 19 20 21 22 23 24 25 26 27 28 29 30 31 32 33 34 35 36 37 38 39 40 41 42 43 44 45 46 47 48 49 50
507
ASUS43 KGRB 300611
RWRGRB

NORTH-CENTRAL AND NORTHEAST WISCONSIN REGIONAL WEATHER ROUNDUP
NATIONAL WEATHER SERVICE GREEN BAY WI
100 AM CDT TUE AUG 30 2016

WIZ005-009-010>012-018-019-300700-
NORTH CENTRAL WISCONSIN

CITY           SKY/WX    TMP DP  RH WIND       PRES   REMARKS
IRONWOOD       FAIR      67  66  97 NW6       30.15R
MANITOWISH WTR FAIR      69  69 100 SW5       30.17S
ARBOR VITAE    LGT RAIN  72  70  94 CALM      30.18F
EAGLE RIVER    LGT RAIN  70  70 100 SW8       30.17S
LAND O LAKES   MOCLDY    70  69  98 W3        30.16F
RHINELANDER    MOCLDY    72  72 100 W7        30.19S
PHILLIPS       TSTM      68  65  90 W7G18     30.19R
ANTIGO         FAIR      69  69 100 W6        30.18F
TOMAHAWK       FAIR      70  68  95 CALM      30.18F
MERRILL        FAIR      71  71 100 SW3       30.18F
$$

WIZ013-073-300700-
NORTHEAST WISCONSIN

CITY           SKY/WX    TMP DP  RH WIND       PRES   REMARKS
IRON MOUNTAIN  FAIR      73  67  81 W3        30.12F
MARINETTE      FAIR     N/A N/A N/A VRB5      30.13F
OCONTO         FAIR      69  68  96 SW3       30.13F
$$

WIZ017-030-035>037-045-300700-
CENTRAL WISCONSIN

CITY           SKY/WX    TMP DP  RH WIND       PRES   REMARKS
MEDFORD        MOCLDY    70  70 100 W12       30.19S
WAUSAU         FAIR      71  69  93 W3        30.16F
MOSINEE        FAIR      68  68 100 SW6       30.19S
MARSHFIELD     FAIR      71  68  90 W5        30.18S FOG
WISC RAPIDS    FAIR      69  69 100 W5        30.19S
STEVENS POINT  FAIR      68  68  99 CALM      30.18S
WAUPACA        FAIR      68  67  98 CALM      30.18R FOG
SHAWANO        FAIR      73  69  88 CALM      30.15F
CLINTONVILLE   FAIR      70  68  94 CALM      30.15F
WAUTOMA        FAIR      66  66 100 CALM      30.18S
$$

WIZ038-039-048-051-300700-
FOX VALLEY

CITY           SKY/WX    TMP DP  RH WIND       PRES   REMARKS
NWS GREEN BAY  FAIR      69  69 100 S3        30.15F
APPLETON       FAIR      68  68 100 SW5       30.16S
OSHKOSH        FAIR      67  65  93 SW5       30.17S
FOND DU LAC    FAIR      67  66  97 S6        30.19R
$$

WIZ022-050-052-300700-
EAST CENTRAL WISCONSIN

CITY           SKY/WX    TMP DP  RH WIND       PRES   REMARKS
EPHRAIM        FAIR      73  70  91 W5        30.12F
WASHINGTON ISL NOT AVBL
STURGEON BAY   FAIR      72  69  90 SW7       30.15F
MANITOWOC      FAIR      65  63  93 S3        30.17S
SHEBOYGAN      FAIR      65  63  93 SW3       30.19R
$$

LMZ563-521-522-541>543-300700-
LAKESHORE

STATION/POSITION TIME  TEMP    WIND        PRES    VSBY  WAVE
                       AIR SEA DIR/SP/G                  HT/PER
                 (UTC) (F)     (DEG/KT/KT) (MB)    (MI)  (FT/S)
SHEBOYGAN LKSHOR 0600   71     230/  4/  5 1021.6R
KEWAUNEE LKSHORE 0500   68      CALM  /  3 1020.8R
NORTHPORT PIER   0500   72     200/  2/  5 1020.3
N MID LAKE BUOY  0550   72 71  220/ 14/ 17 1019.2F         2/ 4
SISTER BAY LKSHO 0507   75     240/ 11/ 12   N/A
CHAMBERS ISLAND  0500   73     190/  4/ 13 1020.3R
MENOMINEE LKSHOR 0500   74     210/  8/ 10 1019.9R
$$




USA.gov is the U.S. government's official web portal to all federal, state and local government web resources and services.